Miscellaneous Local Product
Issued by NWS North Platte, NE

Home | Current Version | Previous Version | Graphics & Text | Print | Product List | Glossary On
Versions: 1 2 3 4 5 6 7 8 9 10 11 12 13 14 15 16 17 18 19 20 21 22 23 24 25 26 27 28 29 30 31 32 33 34 35 36 37 38 39 40 41 42 43 44 45 46 47 48 49 50
000
AXUS43 KLBF 222210
MISLBF


WESTERN AND NORTH CENTRAL NEBRASKA HOURLY WEATHER ROUNDUP
NATIONAL WEATHER SERVICE NORTH PLATTE NE
400 PM CST SUN JAN 22 2017

NOTE: "FAIR" INDICATES FEW OR NO CLOUDS BELOW 12,000 FEET WITH NO
SIGNIFICANT WEATHER AND/OR OBSTRUCTIONS TO VISIBILITY.

NOTE: STATIONS NOT REPORTING VARIABLES SUCH AS SKY/WEATHER OR
PRESSURE ARE PROVIDED BY RAWS AND APRS NETWORKS AND ARE NOT UNDER
NATIONAL WEATHER SERVICE QUALITY CONTROL.

...OBSERVATIONS IN AND NEAR THE EASTERN PANHANDLE OF NEBRASKA...

CITY           SKY/WX    TMP DP  RH WIND       PRES   REMARKS
PINE RIDGE     SUNNY     40  26  57 W10       29.85S WCI  33
CHADRON        SUNNY     39  28  64 NW9       29.87R WCI  33
ALLIANCE       SUNNY     45  22  40 W15       29.85S
SIDNEY         SUNNY     45  19  35 NW20G26   29.88S
CRESCENT LAKE    N/A     45  23  41 NW12        N/A
$$

...OBSERVATIONS IN NORTHERN NEBRASKA AND FAR SOUTHERN SOUTH DAKOTA...

CITY           SKY/WX    TMP DP  RH WIND       PRES   REMARKS
WINNER         FAIR      38  27  64 NW16      29.86R WCI  29
VALENTINE      SUNNY     41  24  51 NW14      29.85R
THEDFORD       SUNNY     48  26  42 NW9       29.85R
AINSWORTH      SUNNY     43  28  54 NW12      29.84R
O`NEILL        SUNNY     45  27  49 NW13      29.83R
ORD            SUNNY     48  30  49 NW9       29.82R
BROKEN BOW     SUNNY     48  31  51 NW10G21   29.82S
VALENTINE NWR    N/A     44  24  45 NW13G22     N/A
BUTTE            N/A     39  29  68 NW13G20     N/A  WCI  31
HALSEY           N/A     49  23  36 NW9G16      N/A
SARGENT          N/A     48  31  53 NW3         N/A
CHAMBERS         N/A     45  27  49 NW3         N/A
EWING            N/A     43  31  61 N7          N/A
$$

...OBSERVATIONS IN SOUTHWEST NEBRASKA AND FAR NORTHEAST COLORADO...

CITY           SKY/WX    TMP DP  RH WIND       PRES   REMARKS
HOLYOKE        FAIR      52  25  35 N12       29.88S
IMPERIAL       SUNNY     48  25  40 NW15      29.88R
OGALLALA       SUNNY     48  30  48 NW10      29.87R
NORTH PLATTE   SUNNY     50  27  40 NW12      29.85R
MCCOOK         SUNNY     50  30  46 NW13      29.87R
LEXINGTON      SUNNY     50  29  44 NW8       29.84S
STAPLETON        N/A     47  28  48 CALM        N/A
GOTHENBURG       N/A     49  28  44 W7          N/A
CALLAWAY         N/A     49  30  47 NW13        N/A
$$

...OBSERVATIONS IN CENTRAL LINCOLN COUNTY AREA...

CITY           SKY/WX    TMP DP  RH WIND       PRES   REMARKS
N.P. AIRPORT   SUNNY     50  27  40 NW12      29.85R
N.P. DOWNTOWN    N/A     49  30  47 W8G15       N/A
N.P. SOUTHEAST   N/A     49  28  43 NW5G12      N/A
N.P. HILLCREST   N/A     49  29  46 NW12        N/A
$$

...SOME OBSERVATIONS FROM AROUND THE REGION...

CITY           SKY/WX    TMP DP  RH WIND       PRES   REMARKS
LARAMIE        SUNNY     26  14  60 S12       29.86S WCI  16
CHEYENNE       SUNNY     37  10  32 W23G33    29.87S WCI  26
DENVER         MOSUNNY   46   4  17 E5        29.87F
AKRON          SUNNY     44  14  29 NW14      29.89S
SCOTTSBLUFF    SUNNY     45  18  34 NW13      29.87F
RAPID CITY     SUNNY     40  23  50 SE5       29.84R
BISMARCK       CLOUDY    32  28  85 W10       29.81R WCI  24
PIERRE         CLOUDY    29  24  82 NW16      29.86S WCI  17
SIOUX FALLS    CLOUDY    30  28  92 NW14      29.81S FOG     WCI  19
OMAHA          CLOUDY    40  33  76 NW10      29.81S WCI  33
GRAND ISLAND   SUNNY     48  31  51 N9        29.83S
KANSAS CITY    CLOUDY    37  31  78 N12       29.75S WCI  29
WICHITA        SUNNY     52  29  41 N21G31    29.80R
OKLAHOMA CITY  MOSUNNY   57  36  45 N25G31    29.79R
DALLAS         MOSUNNY   66  34  30 NW36G44   29.72R
AMARILLO       SUNNY     55  26  32 NW17      29.95S
DODGE CITY     SUNNY     52  28  39 N15G23    29.88R
HAYS           SUNNY     52  25  35 N16       29.87R
GOODLAND       SUNNY     48  25  40 N13       29.89S
$$




USA.gov is the U.S. government's official web portal to all federal, state and local government web resources and services.